ZHONGXING-1E

Last updated on Thu Nov 21 2024 00:02:44 GMT+0000 (Coordinated Universal Time)

1 53813U 22112A 24325.54100505 -.00000149 00000+0 00000+0 0 9997 2 53813 0.0179 29.1711 0004907 234.2211 72.8336 1.00272111 8096
UTC large
Height (km)
Speed (km/s)
/
Latitude / Longitude
Inclination (degrees)
Orbital Period (minutes)
Azimuth
Elevation
Range (km)
Doppler Factor

Next 0 passes for location: London (51.5072 / 0.1276)

Sorry there are no passes over London.